sat.trackr.live / text

‹ back to catalog

STARLINK-4517

NORAD 53390 · 2022-097C

PAYLOAD ACTIVE UNKNOWN

§ Identity

Operator
Country
US
Launch date
2022-08-10
Launch site
AFETR
Launch vehicle
Mass (kg)
RCS (m²)

Purposes: comms

External: N2YO · Heavens-Above · Gunter

§ Orbital elements

Epoch: 2026-05-25T00:40:45.905376Z

Period
95.44 min
Inclination
53.2145°
Eccentricity
0.0001212
Mean motion
15.08848843 rev/d
Perigee alt
538.9 km
Apogee alt
540.6 km
Semi-major
6,917.9 km
B*
-1.7574e-5
RAAN
141.4221°
Arg perigee
86.8102°
Mean anomaly
273.3029°
Rev number
21,034

§ Raw data

STARLINK-45171 53390U 22097C   26145.02830909 -.00000568  00000+0 -17574-4 0  99972 53390  53.2145 141.4221 0001212  86.8102 273.3029 15.08848843210343

JSON: /api/v1/satellites/53390 · /tle

For live sub-satellite position, see the globe view (requires WebGL).

§ Visibility from observer

Set your observer location to see the next 7 days of passes ≥ 10°. The values pass through the URL so the page stays shareable.

No JS? Fill the form by hand. The geolocation button needs JavaScript.